| time (UTC) | temp F | wind direction | speed MPH | gust MPH | rain 1hr in | rain 24hr in | rain mn in | humidity % | barometer mb |
| 20260507171516 | 83 | 45 | 3.0 | 7.0 | 0.00 | 0.00 | 0.00 | 19 | 1014.5 |
| 20260507170515 | 82 | 23 | 5.0 | 10.0 | 0.00 | 0.00 | 0.00 | 19 | 1014.5 |
| 20260507165516 | 81 | 45 | 3.0 | 10.0 | 0.00 | 0.00 | 0.00 | 20 | 1014.5 |
| 20260507164516 | 80 | 248 | 1.0 | 5.0 | 0.00 | 0.00 | 0.00 | 21 | 1014.4 |
| 20260507163538 | 80 | 0.0 | 3.0 | 0.00 | 0.00 | 0.00 | 22 | 1014.6 | |
| 20260507162515 | 78 | 248 | 1.0 | 4.0 | 0.00 | 0.00 | 0.00 | 22 | 1014.7 |
| 20260507161517 | 77 | 270 | 1.0 | 4.0 | 0.00 | 0.00 | 0.00 | 22 | 1014.8 |
| 20260507160516 | 77 | 0.0 | 3.0 | 0.00 | 0.00 | 0.00 | 23 | 1014.9 | |
| 20260507155516 | 76 | 0.0 | 1.0 | 0.00 | 0.00 | 0.00 | 23 | 1014.9 | |
| 20260507154536 | 75 | 0.0 | 1.0 | 0.00 | 0.00 | 0.00 | 24 | 1015.0 | |
| 20260507153515 | 74 | 270 | 1.0 | 4.0 | 0.00 | 0.00 | 0.00 | 25 | 1014.9 |
| 20260507152516 | 73 | 0.0 | 4.0 | 0.00 | 0.00 | 0.00 | 26 | 1014.9 | |
| 20260507151516 | 73 | 248 | 1.0 | 3.0 | 0.00 | 0.00 | 0.00 | 26 | 1014.9 |
| 20260507150515 | 73 | 203 | 1.0 | 4.0 | 0.00 | 0.00 | 0.00 | 26 | 1014.9 |
| 20260507145537 | 73 | 135 | 1.0 | 4.0 | 0.00 | 0.00 | 0.00 | 27 | 1014.9 |
| 20260507144515 | 73 | 158 | 1.0 | 5.0 | 0.00 | 0.00 | 0.00 | 27 | 1014.9 |
| 20260507143515 | 72 | 0.0 | 0.0 | 0.00 | 0.00 | 0.00 | 27 | 1014.9 | |
| 20260507142516 | 74 | 0.0 | 1.0 | 0.00 | 0.00 | 0.00 | 25 | 1014.9 | |
| 20260507141515 | 74 | 0.0 | 0.0 | 0.00 | 0.00 | 0.00 | 27 | 1014.9 | |
| 20260507140536 | 70 | 0.0 | 0.0 | 0.00 | 0.00 | 0.00 | 30 | 1014.6 | |
| 20260507135516 | 68 | 0.0 | 0.0 | 0.00 | 0.00 | 0.00 | 31 | 1014.4 | |
| 20260507134516 | 67 | 0.0 | 0.0 | 0.00 | 0.00 | 0.00 | 32 | 1014.3 | |
| 20260507133519 | 65 | 113 | 2.0 | 5.0 | 0.00 | 0.00 | 0.00 | 34 | 1014.1 |
| 20260507132515 | 63 | 90 | 1.0 | 3.0 | 0.00 | 0.00 | 0.00 | 36 | 1013.9 |
| 20260507131536 | 61 | 0.0 | 1.0 | 0.00 | 0.00 | 0.00 | 38 | 1013.7 | |
| 20260507130515 | 0 | 0.0 | 0.0 | 0.00 | 0.00 | 0.00 | |||
| 20260507125515 | 0 | 0.0 | 0.0 | 0.00 | 0.00 | 0.00 | |||
| 20260507125108 | 0 | 0.0 | 0.0 | 0.00 | 0.00 | 0.00 | |||
| 20260507124016 | 0 | 0.0 | 0.0 | 0.00 | 0.00 | 0.00 | |||
| 20260507123037 | 0 | 0.0 | 0.0 | 0.00 | 0.00 | 0.00 | |||
| 20260507122612 | 0 | 0.0 | 0.0 | 0.00 | 0.00 | 0.00 | |||
| 20260507121515 | 0 | 0.0 | 0.0 | 0.00 | 0.00 | 0.00 | |||
| 20260507120515 | 0 | 0.0 | 0.0 | 0.00 | 0.00 | 0.00 | |||
| 20260507120046 | 0 | 0.0 | 0.0 | 0.00 | 0.00 | 0.00 | |||
| 20260507115035 | 0 | 0.0 | 0.0 | 0.00 | 0.00 | 0.00 | |||
| 20260507114015 | 0 | 0.0 | 0.0 | 0.00 | 0.00 | 0.00 | |||
| 20260507113608 | 0 | 0.0 | 0.0 | 0.00 | 0.00 | 0.00 | |||
| 20260507112516 | 0 | 0.0 | 0.0 | 0.00 | 0.00 | 0.00 | |||
| 20260507111516 | 0 | 0.0 | 0.0 | 0.00 | 0.00 | 0.00 | |||
| 20260507111132 | 0 | 0.0 | 0.0 | 0.00 | 0.00 | 0.00 | |||
| 20260507110015 | 0 | 0.0 | 0.0 | 0.00 | 0.00 | 0.00 | |||
| 20260507105015 | 0 | 0.0 | 0.0 | 0.00 | 0.00 | 0.00 | |||
| 20260507104608 | 0 | 0.0 | 0.0 | 0.00 | 0.00 | 0.00 | |||
| 20260507103515 | 0 | 0.0 | 0.0 | 0.00 | 0.00 | 0.00 | |||
| 20260507102535 | 0 | 0.0 | 0.0 | 0.00 | 0.00 | 0.00 | |||
| 20260507102018 | 57 | 0.0 | 0.0 | 0.00 | 0.00 | 0.00 | 38 | 1013.7 | |
| 20260507101510 | 57 | 0.0 | 1.0 | 0.00 | 0.00 | 0.00 | 38 | 1013.7 | |
| 20260507101016 | 58 | 0.0 | 1.0 | 0.00 | 0.00 | 0.00 | 38 | 1013.7 | |
| 20260507100018 | 58 | 0.0 | 0.0 | 0.00 | 0.00 | 0.00 | 37 | 1013.7 | |
| 20260507095038 | 58 | 0.0 | 0.0 | 0.00 | 0.00 | 0.00 | 37 | 1013.8 | |
| 20260507094015 | 59 | 0.0 | 0.0 | 0.00 | 0.00 | 0.00 | 36 | 1013.9 | |
| 20260507093015 | 59 | 0.0 | 1.0 | 0.00 | 0.00 | 0.00 | 36 | 1014.0 | |
| 20260507092016 | 59 | 0.0 | 0.0 | 0.00 | 0.00 | 0.00 | 36 | 1014.0 | |
| 20260507091015 | 59 | 0.0 | 0.0 | 0.00 | 0.00 | 0.00 | 36 | 1014.1 | |
| 20260507090035 | 59 | 0.0 | 1.0 | 0.00 | 0.00 | 0.00 | 36 | 1014.2 | |
| 20260507085017 | 59 | 0.0 | 0.0 | 0.00 | 0.00 | 0.00 | 35 | 1014.2 | |
| 20260507084015 | 59 | 0.0 | 1.0 | 0.00 | 0.00 | 0.00 | 35 | 1014.3 | |
| 20260507083015 | 60 | 0.0 | 0.0 | 0.00 | 0.00 | 0.00 | 34 | 1014.4 | |
| 20260507082015 | 60 | 0.0 | 0.0 | 0.00 | 0.00 | 0.00 | 34 | 1014.5 | |
| 20260507081035 | 60 | 0.0 | 1.0 | 0.00 | 0.00 | 0.00 | 34 | 1014.5 | |
| 20260507080015 | 60 | 0.0 | 1.0 | 0.00 | 0.00 | 0.00 | 33 | 1014.5 | |
| 20260507075017 | 61 | 0.0 | 0.0 | 0.00 | 0.00 | 0.00 | 33 | 1014.7 | |
| 20260507074017 | 61 | 0.0 | 0.0 | 0.00 | 0.00 | 0.00 | 32 | 1014.7 | |
| 20260507073017 | 61 | 0.0 | 0.0 | 0.00 | 0.00 | 0.00 | 32 | 1014.6 | |
| 20260507072037 | 62 | 0.0 | 0.0 | 0.00 | 0.00 | 0.00 | 31 | 1014.6 | |
| 20260507071017 | 62 | 0.0 | 0.0 | 0.00 | 0.00 | 0.00 | 31 | 1014.6 | |
| 20260507070110 | 62 | 0.0 | 0.0 | 0.00 | 0.00 | 0.00 | 31 | 1014.5 | |
| 20260507065517 | 62 | 0.0 | 1.0 | 0.00 | 0.00 | 0.00 | 31 | 1014.5 | |
| 20260507064516 | 62 | 0.0 | 0.0 | 0.00 | 0.00 | 0.00 | 30 | 1014.6 | |
| 20260507063538 | 62 | 99 | 0.0 | 0.0 | 0.00 | 0.00 | 0.00 | 30 | 1014.7 |
| 20260507062517 | 62 | 0.0 | 0.0 | 0.00 | 0.00 | 0.00 | 30 | 1014.5 | |
| 20260507061516 | 62 | 0.0 | 0.0 | 0.00 | 0.00 | 0.00 | 29 | 1014.5 | |
| 20260507060517 | 62 | 0.0 | 1.0 | 0.00 | 0.00 | 0.00 | 29 | 1014.6 | |
| 20260507055517 | 63 | 0.0 | 1.0 | 0.00 | 0.00 | 0.00 | 29 | 1014.5 | |
| 20260507054538 | 63 | 0.0 | 0.0 | 0.00 | 0.00 | 0.00 | 29 | 1014.6 | |
| 20260507053519 | 63 | 0.0 | 0.0 | 0.00 | 0.00 | 0.00 | 28 | 1014.7 | |
| 20260507052517 | 63 | 0.0 | 0.0 | 0.00 | 0.00 | 0.00 | 29 | 1014.6 | |
| 20260507051517 | 63 | 0.0 | 0.0 | 0.00 | 0.00 | 0.00 | 28 | 1014.6 | |
| 20260507050516 | 64 | 0.0 | 0.0 | 0.00 | 0.00 | 0.00 | 28 | 1014.5 | |
| 20260507045537 | 64 | 0.0 | 0.0 | 0.00 | 0.00 | 0.00 | 28 | 1014.4 | |
| 20260507044518 | 64 | 0.0 | 0.0 | 0.00 | 0.00 | 0.00 | 27 | 1014.5 | |
| 20260507043516 | 65 | 0.0 | 0.0 | 0.00 | 0.00 | 0.00 | 27 | 1014.5 | |
| 20260507042517 | 66 | 0.0 | 0.0 | 0.00 | 0.00 | 0.00 | 27 | 1014.5 | |
| 20260507041516 | 66 | 0.0 | 0.0 | 0.00 | 0.00 | 0.00 | 27 | 1014.5 | |
| 20260507040537 | 66 | 0.0 | 0.0 | 0.00 | 0.00 | 0.00 | 26 | 1014.3 | |
| 20260507035516 | 67 | 0.0 | 0.0 | 0.00 | 0.00 | 0.00 | 26 | 1014.2 | |
| 20260507034516 | 67 | 0.0 | 0.0 | 0.00 | 0.00 | 0.00 | 25 | 1014.1 | |
| 20260507033516 | 68 | 0.0 | 0.0 | 0.00 | 0.00 | 0.00 | 25 | 1014.0 | |
| 20260507032517 | 69 | 0.0 | 0.0 | 0.00 | 0.00 | 0.00 | 24 | 1014.1 | |
| 20260507031539 | 70 | 0.0 | 0.0 | 0.00 | 0.00 | 0.00 | 23 | 1014.0 | |
| 20260507030519 | 71 | 0.0 | 0.0 | 0.00 | 0.00 | 0.00 | 21 | 1014.0 | |
| 20260507025519 | 73 | 0.0 | 0.0 | 0.00 | 0.00 | 0.00 | 20 | 1014.0 | |
| 20260507024517 | 74 | 0.0 | 0.0 | 0.00 | 0.00 | 0.00 | 20 | 1013.9 | |
| 20260507023519 | 75 | 0.0 | 1.0 | 0.00 | 0.00 | 0.00 | 19 | 1014.0 | |
| 20260507022537 | 75 | 0.0 | 3.0 | 0.00 | 0.00 | 0.00 | 19 | 1013.9 | |
| 20260507021516 | 76 | 248 | 2.0 | 4.0 | 0.00 | 0.00 | 0.00 | 18 | 1013.8 |
| 20260507020516 | 77 | 270 | 2.0 | 6.0 | 0.00 | 0.00 | 0.00 | 18 | 1013.9 |
| 20260507015516 | 78 | 270 | 2.0 | 4.0 | 0.00 | 0.00 | 0.00 | 18 | 1013.9 |
| 20260507014516 | 79 | 0.0 | 5.0 | 0.00 | 0.00 | 0.00 | 18 | 1014.0 | |
| 20260507013536 | 79 | 293 | 1.0 | 7.0 | 0.00 | 0.00 | 0.00 | 17 | 1014.0 |
| 20260507012517 | 79 | 293 | 4.0 | 6.0 | 0.00 | 0.00 | 0.00 | 17 | 1014.0 |
| 20260507011516 | 79 | 270 | 3.0 | 8.0 | 0.00 | 0.00 | 0.00 | 17 | 1014.0 |
| 20260507010516 | 80 | 270 | 1.0 | 4.0 | 0.00 | 0.00 | 0.00 | 17 | 1014.0 |
| 20260507005517 | 80 | 338 | 1.0 | 7.0 | 0.00 | 0.00 | 0.00 | 17 | 1013.9 |
| 20260507004536 | 80 | 293 | 2.0 | 6.0 | 0.00 | 0.00 | 0.00 | 17 | 1013.9 |
| 20260507003516 | 80 | 0.0 | 3.0 | 0.00 | 0.00 | 0.00 | 16 | 1013.8 | |
| 20260507002517 | 80 | 293 | 3.0 | 7.0 | 0.00 | 0.00 | 0.00 | 17 | 1013.8 |
| 20260507001517 | 80 | 0.0 | 0.0 | 0.00 | 0.00 | 0.00 | 17 | 1013.7 | |
| 20260507000516 | 80 | 270 | 3.0 | 6.0 | 0.00 | 0.00 | 0.00 | 17 | 1013.7 |
| 20260506235538 | 81 | 293 | 3.0 | 7.0 | 0.00 | 0.00 | 0.00 | 17 | 1013.9 |
| 20260506234517 | 80 | 293 | 4.0 | 8.0 | 0.00 | 0.00 | 0.00 | 17 | 1013.8 |
| 20260506233518 | 81 | 270 | 3.0 | 8.0 | 0.00 | 0.00 | 0.00 | 17 | 1013.8 |
| 20260506232518 | 81 | 0.0 | 0.0 | 0.00 | 0.00 | 0.00 | 16 | 1014.0 | |
| 20260506231516 | 80 | 293 | 4.0 | 8.0 | 0.00 | 0.00 | 0.00 | 17 | 1014.0 |
| 20260506230536 | 80 | 248 | 1.0 | 5.0 | 0.00 | 0.00 | 0.00 | 17 | 1014.1 |
| 20260506225516 | 80 | 270 | 5.0 | 11.0 | 0.00 | 0.00 | 0.00 | 17 | 1014.3 |
| 20260506224516 | 79 | 338 | 1.0 | 4.0 | 0.00 | 0.00 | 0.00 | 18 | 1014.3 |
| 20260506223517 | 80 | 270 | 6.0 | 12.0 | 0.00 | 0.00 | 0.00 | 18 | 1014.4 |
| 20260506222516 | 79 | 270 | 4.0 | 8.0 | 0.00 | 0.00 | 0.00 | 18 | 1014.5 |
| 20260506221536 | 79 | 68 | 6.0 | 13.0 | 0.00 | 0.00 | 0.00 | 19 | 1014.5 |
| 20260506220516 | 80 | 315 | 2.0 | 10.0 | 0.00 | 0.00 | 0.00 | 19 | 1014.8 |
| 20260506215516 | 79 | 293 | 2.0 | 9.0 | 0.00 | 0.00 | 0.00 | 19 | 1015.0 |
| 20260506214516 | 78 | 248 | 4.0 | 10.0 | 0.00 | 0.00 | 0.00 | 20 | 1015.0 |
| 20260506213516 | 79 | 293 | 4.0 | 8.0 | 0.00 | 0.00 | 0.00 | 20 | 1015.2 |
| 20260506212537 | 78 | 0.0 | 0.0 | 0.00 | 0.00 | 0.00 | 20 | 1015.2 | |
| 20260506211516 | 78 | 0.0 | 0.0 | 0.00 | 0.00 | 0.00 | 19 | 1015.4 | |
| 20260506210516 | 78 | 0.0 | 0.0 | 0.00 | 0.00 | 0.00 | 21 | 1015.5 | |
| 20260506205516 | 77 | 0.0 | 0.0 | 0.00 | 0.00 | 0.00 | 21 | 1015.5 | |
| 20260506204517 | 77 | 0.0 | 0.0 | 0.00 | 0.00 | 0.00 | 21 | 1015.6 | |
| 20260506203539 | 77 | 0.0 | 0.0 | 0.00 | 0.00 | 0.00 | 21 | 1015.8 | |
| 20260506202516 | 77 | 0.0 | 0.0 | 0.00 | 0.00 | 0.00 | 21 | 1015.9 | |
| 20260506201516 | 77 | 0.0 | 0.0 | 0.00 | 0.00 | 0.00 | 22 | 1015.9 | |
| 20260506200516 | 77 | 0.0 | 0.0 | 0.00 | 0.00 | 0.00 | 23 | 1016.0 | |
| 20260506195516 | 75 | 0.0 | 0.0 | 0.00 | 0.00 | 0.00 | 24 | 1016.0 | |
| 20260506194536 | 76 | 0.0 | 0.0 | 0.00 | 0.00 | 0.00 | 23 | 1016.2 | |
| 20260506193516 | 75 | 0.0 | 0.0 | 0.00 | 0.00 | 0.00 | 24 | 1016.5 | |
| 20260506192516 | 75 | 0.0 | 0.0 | 0.00 | 0.00 | 0.00 | 25 | 1016.5 | |
| 20260506191516 | 75 | 0.0 | 0.0 | 0.00 | 0.00 | 0.00 | 25 | 1016.7 | |
| 20260506190516 | 74 | 0.0 | 0.0 | 0.00 | 0.00 | 0.00 | 26 | 1016.6 | |
| 20260506185537 | 74 | 23 | 3.0 | 7.0 | 0.00 | 0.00 | 0.00 | 26 | 1016.7 |
| 20260506184516 | 74 | 23 | 3.0 | 8.0 | 0.00 | 0.00 | 0.00 | 26 | 1016.9 |
| 20260506183516 | 74 | 270 | 2.0 | 9.0 | 0.00 | 0.00 | 0.00 | 26 | 1016.9 |
| 20260506182516 | 74 | 0 | 2.0 | 4.0 | 0.00 | 0.00 | 0.00 | 27 | 1017.2 |
| 20260506181516 | 74 | 23 | 2.0 | 7.0 | 0.00 | 0.00 | 0.00 | 26 | 1017.2 |
| 20260506180536 | 72 | 23 | 3.0 | 8.0 | 0.00 | 0.00 | 0.00 | 29 | 1017.1 |
| 20260506175516 | 73 | 270 | 4.0 | 7.0 | 0.00 | 0.00 | 0.00 | 28 | 1017.3 |
| 20260506174516 | 73 | 0 | 1.0 | 4.0 | 0.00 | 0.00 | 0.00 | 28 | 1017.3 |
| 20260506173516 | 72 | 338 | 2.0 | 6.0 | 0.00 | 0.00 | 0.00 | 29 | 1017.2 |
| 20260506172516 | 72 | 338 | 3.0 | 7.0 | 0.00 | 0.00 | 0.00 | 30 | 1017.2 |